Back to catalog

FENGYUN 1C DEB

LostSSO
NORAD 31268·DEBRIS·🇨🇳 China

Launched May 10, 1999 from Taiyuan Satellite Launch Center

Loading…

Next Passes (next 24 hours)

TLE

StaleSource: Space-Track

Epoch: Aug 9, 2026, 08:19 UTC

1 31268U 99025BNA 26221.34680680  .00000453  00000-0  29434-3 0  9990
2 31268  98.7335 260.5468 0047902 227.8337 131.8760 14.06905590654013

Track FENGYUN 1C DEB in real time with AllMySat

Download on the App Store